Frederick, OK

9:53 AM CST on February 14, 2016 (GMT -0600)
Frederick Municipal

Weather History for KFDR - January, 2014

Change the Weather History Date:

Sunday, January 19, 2014

  Actual Average (KLTS) Record (KLTS)
Temperature  
Mean Temperature 48 °F -  
Max Temperature 71 °F 50 °F 75 °F (1999)
Min Temperature 26 °F 27 °F 13 °F (2008)
Degree Days  
Heating Degree Days 16    
Moisture  
Dew Point 17 °F    
Average Humidity 36    
Maximum Humidity 66    
Minimum Humidity 11    
Precipitation  
Precipitation 0.00 in - - ()
Sea Level Pressure  
Sea Level Pressure 30.10 in    
Wind  
Wind Speed 9 mph (SW)    
Max Wind Speed 22 mph    
Max Gust Speed 30 mph    
Visibility 10 miles    
Events      
Averages and records for this station are not official NWS values.
T = Trace of Precipitation, MM = Missing Value Source: NWS Daily Summary

Daily Weather History Graph

Daily Weather History Graph

Search for Another Location

Airport or City:

Trip Planner

Search our weather history database for the weather conditions in past years. The results will help you decide how hot, cold, wet, or windy it might be!

Date:

Astronomy

Jan. 19, 2014 Rise Set
Actual Time 7:40 AM CST 5:53 PM CST
Civil Twilight 7:13 AM CST 6:20 PM CST
Nautical Twilight 6:42 AM CST 6:50 PM CST
Astronomical Twilight 6:12 AM CST 7:20 PM CST
Moon 9:21 PM CST (1/19) 9:21 AM CST (1/19)
Length of Visible Light 11h 06m
Length of Day
10h 12m
Waning Gibbous, 89% of the Moon is Illuminated
Jan 19
Waning Gibbous
Jan 23
Last Quarter
Jan 30
New
Feb 6
First Quarter
Feb 14
Full

Hourly Weather History & Observations

Time (CST) Temp. Windchill Dew Point Humidity Pressure Visibility Wind Dir Wind Speed Gust Speed Precip Events Conditions
12:53 AM 37.9 °F - 18.0 °F 45% 30.19 in 10.0 mi North - - N/A   Clear
1:53 AM 36.0 °F 29.6 °F 17.1 °F 46% 30.19 in 10.0 mi NNW 8.1 mph - N/A   Clear
2:53 AM 32.0 °F - 17.1 °F 54% 30.21 in 10.0 mi Calm Calm - N/A   Clear
3:53 AM 30.9 °F 23.5 °F 17.1 °F 57% 30.23 in 10.0 mi WNW 8.1 mph - N/A   Clear
4:53 AM 32.0 °F 24.8 °F 17.1 °F 54% 30.23 in 10.0 mi WNW 8.1 mph - N/A   Clear
5:53 AM 32.0 °F 27.5 °F 17.1 °F 54% 30.22 in 10.0 mi NW 4.6 mph - N/A   Clear
6:53 AM 27.0 °F - 16.0 °F 63% 30.24 in 10.0 mi Calm Calm - N/A   Clear
7:53 AM 26.1 °F 21.9 °F 16.0 °F 66% 30.24 in 10.0 mi SW 3.5 mph - N/A   Clear
8:53 AM 34.0 °F 29.8 °F 19.9 °F 56% 30.24 in 8.0 mi WSW 4.6 mph - N/A   Clear
9:53 AM 45.0 °F 40.1 °F 21.0 °F 39% 30.23 in 10.0 mi SW 9.2 mph - N/A   Clear
10:53 AM 52.0 °F - 19.9 °F 28% 30.22 in 10.0 mi SSW 17.3 mph - N/A   Clear
11:53 AM 57.9 °F - 19.9 °F 23% 30.18 in 10.0 mi SW 18.4 mph - N/A   Clear
12:53 PM 64.0 °F - 18.0 °F 17% 30.12 in 10.0 mi SW 21.9 mph 29.9 mph N/A   Clear
1:53 PM 68.0 °F - 18.0 °F 15% 30.06 in 10.0 mi SW 19.6 mph - N/A   Clear
2:53 PM 70.0 °F - 16.0 °F 13% 30.01 in 10.0 mi SW 20.7 mph 26.5 mph N/A   Clear
3:53 PM 71.1 °F - 16.0 °F 12% 29.99 in 10.0 mi SSW 19.6 mph - N/A   Clear
4:53 PM 70.0 °F - 12.9 °F 11% 29.97 in 10.0 mi SW 19.6 mph - N/A   Clear
5:53 PM 60.1 °F - 16.0 °F 18% 29.96 in 10.0 mi South 11.5 mph - N/A   Clear
6:53 PM 53.1 °F - 17.1 °F 24% 29.97 in 10.0 mi South 11.5 mph - N/A   Clear
7:53 PM 46.9 °F - 16.0 °F 29% 29.98 in 10.0 mi SSW 9.2 mph - N/A   Clear
8:53 PM 45.0 °F 39.3 °F 18.0 °F 34% 29.97 in 10.0 mi South 11.5 mph - N/A   Clear
9:53 PM 44.1 °F 38.1 °F 18.0 °F 35% 29.94 in 10.0 mi South 11.5 mph - N/A   Clear
10:53 PM 41.0 °F 34.7 °F 18.0 °F 40% 29.94 in 10.0 mi SSW 10.4 mph - N/A   Clear
11:53 PM 42.1 °F 36.6 °F 18.0 °F 38% 29.91 in 10.0 mi South 9.2 mph - N/A   Clear